Zurück zum Katalog

USA 40 R/B DEB

AktivUNKNOWN
NORAD 23359·DEBRIS·🇺🇸 United States

Gestartet Aug 8, 1989 von Cape Canaveral Space Force Station

Loading…

Nächste Überflüge (nächste 24 Stunden)

TLE

AktuellSource: Space-Track

Epoche: Sep 13, 2026, 11:58 UTC

1 23359U 89061AF  26256.49871048  .00004061  00000-0  21500-2 0  9999
2 23359  56.8863 292.0548 2128977 104.2790 280.2409 10.59954925278987

Verfolge USA 40 R/B DEB in Echtzeit mit AllMySat

Download on the App Store